Date,TemperatureHighF,TemperatureAvgF,TemperatureLowF,DewpointHighF,DewpointAvgF,DewpointLowF,HumidityHigh,HumidityAvg,HumidityLow,PressureMaxIn,PressureMinIn,WindSpeedMaxMPH,WindSpeedAvgMPH,GustSpeedMaxMPH,PrecipitationSumIn
2013-3-1,31.7,24.8,12.9,20.8,16.9,7.0,83,72,57,30.28,30.15,12,2,12,0.01
2013-3-2,35.2,16.3,3.8,15.5,6.5,0.1,97,68,36,30.32,30.20,10,2,10,0.00
2013-3-3,33.4,15.6,-0.4,13.2,4.2,-4.1,88,64,23,30.21,30.10,6,1,6,0.00
2013-3-4,31.2,23.4,11.2,24.5,16.6,5.3,83,75,60,30.15,30.02,16,3,16,0.00
2013-3-5,30.0,27.1,25.0,27.9,24.8,22.5,100,91,82,30.17,29.93,12,3,12,0.05
2013-3-6,33.9,25.1,5.9,26.1,20.5,2.3,93,83,71,30.35,30.16,12,3,12,0.11
2013-3-7,39.4,17.4,-3.2,22.4,9.5,-6.8,89,73,46,30.45,30.35,5,1,5,0.02
2013-3-8,42.5,25.4,5.2,28.4,18.5,2.2,100,76,56,30.47,30.25,10,2,10,0.00
2013-3-9,40.9,36.6,32.5,37.9,32.3,25.6,96,85,75,30.25,29.75,11,2,11,0.38
2013-3-10,38.6,36.8,32.9,37.8,35.7,31.9,100,96,93,29.81,29.65,20,3,20,0.48
2013-3-11,33.7,31.7,28.9,32.1,29.7,25.2,97,92,85,29.78,29.58,13,2,13,0.06
2013-3-12,33.4,27.7,23.6,25.5,22.1,17.0,92,79,64,30.07,29.78,12,4,12,0.02
2013-3-13,35.9,25.1,17.4,19.9,13.2,7.4,85,63,32,30.33,30.07,14,3,14,0.00
2013-3-14,38.7,26.1,14.7,29.3,21.2,11.5,90,82,68,30.33,30.05,8,1,8,0.04
2013-3-15,35.3,31.3,26.7,33.2,29.5,24.4,95,93,90,30.05,29.81,13,1,13,0.12
2013-3-16,32.1,25.9,21.2,27.8,20.8,16.0,100,81,62,30.18,29.83,14,3,14,0.01
2013-3-17,32.5,23.4,13.7,19.6,14.0,7.4,83,67,55,30.29,30.02,16,3,16,0.00
2013-3-18,36.6,24.1,15.5,31.5,20.3,10.2,93,85,77,30.02,29.58,17,4,17,0.10
2013-3-19,28.4,19.1,11.0,12.9,9.0,5.7,80,65,44,30.10,29.75,17,7,17,0.01
2013-3-20,21.4,14.3,6.9,7.8,3.5,-2.0,71,62,52,30.14,30.07,16,4,16,0.00
2013-3-21,29.3,15.1,1.4,12.5,6.0,-2.5,86,68,46,30.13,30.05,7,1,8,0.01
2013-3-22,35.4,19.8,3.7,17.9,10.9,0.7,99,71,42,30.11,30.05,7,1,7,0.01
2013-3-23,39.9,28.3,13.7,23.8,18.6,11.2,92,69,44,30.16,30.07,8,1,8,0.00
2013-3-24,33.4,30.9,28.8,28.5,24.5,21.3,90,77,69,30.08,29.83,13,3,14,0.00
2013-3-25,36.1,31.0,22.9,27.0,22.4,18.0,83,70,63,30.14,29.88,13,3,13,0.00
2013-3-26,40.6,34.1,28.3,27.5,23.4,21.5,77,65,51,30.27,30.14,12,2,13,0.00
2013-3-27,44.2,35.1,25.7,27.4,23.9,19.9,85,65,41,30.33,30.27,9,1,9,0.00
2013-3-28,46.2,32.4,20.1,27.4,22.4,18.1,92,70,36,30.37,30.29,7,1,7,0.00
2013-3-29,52.4,35.4,21.4,30.2,24.3,19.7,100,69,31,30.35,30.20,7,1,7,0.00
2013-3-30,52.4,42.7,33.3,41.7,34.3,26.5,95,73,57,30.21,29.82,16,4,16,0.02
2013-3-31,41.3,37.5,30.6,38.2,32.0,18.8,100,81,58,29.95,29.74,12,4,15,0.00